sat.trackr.live / text

‹ back to catalog

STARLINK-36468

NORAD 67415 · 2026-005M

PAYLOAD ACTIVE UNKNOWN

§ Identity

Operator
Country
US
Launch date
2026-01-12
Launch site
AFETR
Launch vehicle
Mass (kg)
RCS (m²)

Purposes: comms

External: N2YO · Heavens-Above · Gunter

§ Orbital elements

Epoch: 2026-05-24T09:56:24.498816Z

Period
94.27 min
Inclination
43.0005°
Eccentricity
0.0001604
Mean motion
15.27582777 rev/d
Perigee alt
481.9 km
Apogee alt
484.1 km
Semi-major
6,861.2 km
B*
6.9844e-4
RAAN
170.6679°
Arg perigee
265.7689°
Mean anomaly
94.2980°
Rev number
2,027

§ Raw data

STARLINK-364681 67415U 26005M   26144.41417244  .00019009  00000+0  69844-3 0  99922 67415  43.0005 170.6679 0001604 265.7689  94.2980 15.27582777 20271

JSON: /api/v1/satellites/67415 · /tle

For live sub-satellite position, see the globe view (requires WebGL).

§ Visibility from observer

Set your observer location to see the next 7 days of passes ≥ 10°. The values pass through the URL so the page stays shareable.

No JS? Fill the form by hand. The geolocation button needs JavaScript.